TimeCST,TemperatureF,Dew PointF,Humidity,Sea Level PressureIn,VisibilityMPH,Wind Direction,Wind SpeedMPH,Gust SpeedMPH,PrecipitationIn,Events,Conditions,WindDirDegrees,DateUTC
12:53 AM,28.0,21.0,75,30.13,10.0,Calm,Calm,-,N/A,,Clear,0,2012-12-11 06:53:00
1:53 AM,26.1,21.0,81,30.14,10.0,NW,3.5,-,N/A,,Clear,320,2012-12-11 07:53:00
2:53 AM,27.0,21.0,78,30.13,10.0,NNW,4.6,-,N/A,,Clear,340,2012-12-11 08:53:00
3:53 AM,26.1,21.0,81,30.14,10.0,Calm,Calm,-,N/A,,Clear,0,2012-12-11 09:53:00
4:53 AM,26.1,21.0,81,30.14,10.0,North,3.5,-,N/A,,Clear,350,2012-12-11 10:53:00
5:53 AM,25.0,21.0,85,30.17,10.0,Calm,Calm,-,N/A,,Clear,0,2012-12-11 11:53:00
6:53 AM,24.1,21.0,88,30.19,10.0,Calm,Calm,-,N/A,,Clear,0,2012-12-11 12:53:00
7:53 AM,26.1,23.0,88,30.20,10.0,Calm,Calm,-,N/A,,Clear,0,2012-12-11 13:53:00
8:53 AM,30.0,23.0,75,30.21,10.0,Calm,Calm,-,N/A,,Clear,0,2012-12-11 14:53:00
9:53 AM,33.1,21.9,64,30.24,10.0,West,4.6,-,N/A,,Clear,260,2012-12-11 15:53:00
10:53 AM,35.1,23.0,61,30.25,10.0,NW,3.5,-,N/A,,Clear,310,2012-12-11 16:53:00
11:53 AM,37.0,21.9,54,30.23,10.0,Calm,Calm,-,N/A,,Clear,0,2012-12-11 17:53:00
12:53 PM,39.0,23.0,53,30.21,10.0,SW,5.8,-,N/A,,Clear,230,2012-12-11 18:53:00
1:53 PM,39.9,21.9,49,30.19,10.0,SSW,3.5,-,N/A,,Clear,200,2012-12-11 19:53:00
2:53 PM,42.1,27.0,55,30.18,10.0,SSE,5.8,-,N/A,,Clear,150,2012-12-11 20:53:00
3:53 PM,41.0,27.0,57,30.18,10.0,SSE,4.6,-,N/A,,Clear,160,2012-12-11 21:53:00
4:53 PM,37.9,26.1,62,30.19,10.0,South,4.6,-,N/A,,Clear,170,2012-12-11 22:53:00
5:53 PM,34.0,27.0,75,30.21,10.0,Calm,Calm,-,N/A,,Clear,0,2012-12-11 23:53:00
6:53 PM,30.9,26.1,82,30.22,10.0,Calm,Calm,-,N/A,,Clear,0,2012-12-12 00:53:00
7:53 PM,30.0,27.0,88,30.24,10.0,Calm,Calm,-,N/A,,Clear,0,2012-12-12 01:53:00
8:53 PM,30.0,26.1,85,30.25,10.0,Calm,Calm,-,N/A,,Clear,0,2012-12-12 02:53:00
9:53 PM,28.9,25.0,85,30.26,10.0,Calm,Calm,-,N/A,,Clear,0,2012-12-12 03:53:00
10:53 PM,28.0,24.1,85,30.28,10.0,Calm,Calm,-,N/A,,Clear,0,2012-12-12 04:53:00
11:53 PM,27.0,24.1,89,30.29,10.0,Calm,Calm,-,N/A,,Clear,0,2012-12-12 05:53:00